Location: Cronhütte
(48.9135°N, 9.6869°E)
Time: 02:59:57
(UTC+00:00)

Meteor 1-21 - Pass Details

Date: 23 May 2024
Orbit: 844 x 886 km, 81.2° (Epoch: 19 June)

Event Time Altitude Azimuth Distance (km) Brightness Sun altitude
Exits shadow 00:04:42 35° 172° (S) 1,368 4.8 -19.7°
Maximum altitude 00:07:09 70° 98° (E) 920 4.3 -19.6°
Drops below altitude 10° 00:12:52 10° 16° (NNE) 2,533 7.9 -19.4°
Sets 00:15:20 0° 14° (NNE) 3,482 9.1 -19.3°
